[Iaude] MPEC R25: 2012 DX75 [a=2.36,e=0.57,i=14.8,H=20.34]
    mpec at marsden.cfa.harvard.edu 
    mpec at marsden.cfa.harvard.edu
       
    Wed Sep  6 10:07:19 EDT 2023
    
    
  
M.P.E.C. 2023-R25                             Issued 2023 September 6, 14:05 UT
     The Minor Planet Electronic Circulars contain information on unusual
         minor planets, routine data on comets and natural satellites,
         and occasional editorial announcements.  They are published
    on behalf of Division F of the International Astronomical Union by the
          Minor Planet Center, Smithsonian Astrophysical Observatory,
                          Cambridge, MA 02138, U.S.A.
			  
             Prepared using the Tamkin Foundation Computer Network
                              MPC at CFA.HARVARD.EDU
            URL https://www.minorplanetcenter.net/    ISSN 1523-6714
                                   2012 DX75                                    
                           Revision to MPEC 2012-E21                            
Additional Observations:
     K12D75X 0C2023 08 09.52659100 03 47.798-19 01 41.93         23.26GVER025T12
     K12D75X 0C2023 08 11.57877700 00 59.657-19 10 37.33         22.99GVER025T12
     K12D75X  C2023 08 19.46211823 49 00.777-19 42 22.52         23.26GVER025F51
     K12D75X  C2023 08 19.47281523 48 59.706-19 42 24.69         23.68GVER025F51
     K12D75X  C2023 08 19.48346623 48 58.620-19 42 27.38         22.93GVER025F51
     K12D75X  C2023 08 19.49411023 48 57.547-19 42 29.47         22.65GVER025F51
     K12D75X KC2023 09 04.44865923 21 48.699-20 16 32.15         22.49GVER025F52
Observer details:
F51 Pan-STARRS 1, Haleakala.  Observers J. Bulger, K. Chambers, T. Lowe, P.
    Minguez, A. Schultz, I. Smith.  Measurers S. Chastel, J. Fairlamb, M.
    Huber, Y. Ramanjooloo, R. Wainscoat, R. Weryk.  1.8-m Ritchey-Chretien +
    CCD.
F52 Pan-STARRS 2, Haleakala.  Observers J. Bulger, K. Chambers, T. Dukes, T.
    Lowe, P. Minguez, A. Schultz, I. Smith.  Measurers S. Chastel, J.
    Fairlamb, M. Huber, Y. Ramanjooloo, R. Wainscoat, R. Weryk.  1.8-m
    Ritchey-Chretien + CCD.
T12 University of Hawaii 88-inch telescope, Maunakea.  Observer D. Hung.
    Measurer D. J. Tholen.  2.24-m f/10.1 reflector + 2112 x 2112 pixels
    STA1600 10k CCD.
First and last observations above in comparison with prediction:
Residuals in seconds of arc (or two decimals in degrees), reference and Delta-T
230809 T12 0.04- 0.05-    230904 F52 0.05- 0.04-    MPO750185   -0.12 days
Orbital elements:
2012 DX75                                                Earth MOID = 0.0503 AU
Epoch 2023 Sept. 13.0 TT = JDT 2460200.5                Veres                   
M  49.61179              (2000.0)            P               Q                  
n   0.27177283     Peri.  211.85248     -0.70611643     +0.70555055             
a   2.3604711      Node    13.55994     -0.58404199     -0.53241931             
e   0.5733577      Incl.   14.82296     -0.40036800     -0.46768375             
P   3.63           H   20.34          G   0.15           U   0                  
Residuals in seconds of arc
120229 703  0.3-  0.3-    120322 C73  0.4+  0.0     120327 C01  0.0   0.5+
120229 703  0.7+  0.1-    120322 C73  0.3+  0.1+    120327 C01  0.2-  0.4+
120229 703  0.6-  0.1+    120322 C73  0.7+  0.5+    120327 C01  0.2-  0.5+
120229 703  0.0   1.2+    120322 C73  1.0+  1.0+    120327 C01  0.1-  0.3+
120229 703  0.3-  0.7-    120322 C73  0.3+  0.4+    120327 C01  0.1-  0.4+
120229 703  0.4+  0.4-    120322 C73  0.2+  0.0     120327 C01  0.0   0.3+
120229 703  0.4-  1.2-    120322 C73  0.7+  0.0     120327 C01  0.1-  0.3+
120229 H01  0.1-  0.3-    120322 C73  0.4+  0.3+    120327 C01  0.2-  0.4+
120229 703  0.7-  1.0-    120322 A17  0.2+  0.2-    120327 C01  0.1-  0.5+
120229 H01  0.1-  0.1-    120322 A17  0.6+  0.1-    120327 C01  0.2-  0.6+
120229 H01  0.1-  0.2-    120322 A17  0.3+  0.1+    120327 C01  0.2-  0.5+
120229 H01  0.4+  0.2-    120323 510  0.0   0.0     120327 C01  0.1-  0.4+
120229 695  0.2+  0.3-    120323 510  0.0   0.1+    120327 A24  0.3+  0.0
120229 695  0.2+  0.1-    120323 510  0.1+  0.0     120327 A24  0.1+  0.2+
120229 695  0.2+  0.2-    120323 510  0.0   0.0     120327 H23  0.4+  0.4+
120229 695  0.2+  0.1-    120323 704  0.5+  0.9-    120327 H23  0.2+  0.2-
120229 291  0.1+  0.2-    120323 704  0.4+  0.8-    120327 H23  0.5+  0.7-
120229 291  0.3-  0.0     120323 704  0.2+  0.9-    120327 703  0.1-  0.0
120229 291  0.1-  0.1-    120323 704  0.5+  0.6-    120327 H21  0.2-  0.1+
120229 C93  0.5+  0.1+    120323 704  0.2+  0.8-    120327 703  0.1-  0.2+
120229 C92  0.1-  0.1-    120323 C47  0.0   0.2-    120327 H21  0.2-  0.1-
120229 A24  0.2+  0.2-    120323 C47  0.5-  0.1-    120327 H21  0.2-  0.0
120229 C93  0.6+  0.1-    120323 C47  0.2-  0.0     120327 703  0.2-  0.3+
120229 A24  0.4+  0.2-    120323 C01  0.0   0.0     120327 H21  0.1-  0.0
120229 A24  0.3+  0.4-    120323 C01  0.1-  0.2+    120327 H21  0.1+  0.1-
120301 A24  0.2-  0.2-    120323 C47  0.4-  0.1+    120327 703  0.0   0.0
120301 C92  0.0   0.1-    120323 C01  0.0   0.3+    120327 H21  0.0   0.2-
120301 A24  0.0   0.1+    120323 C01  0.1-  0.1+    120327 850  0.0   0.0
120301 I93  0.4-  0.1-    120323 C01  0.1-  0.0     120327 850  0.4+  0.1+
120301 I93  0.2-  0.0     120324 C01  0.1-  0.2+    120327 850  0.1+  0.1+
120301 I93  0.4-  0.1-    120324 C01  0.1-  0.1+    120327 850  0.2+  0.2+
120301 G84  0.8-  0.3-    120324 C01  0.1-  0.1+    120327 379  0.3-  0.6+
120301 G84  0.0   0.2+    120324 C01  0.0   0.1+    120327 379  0.1+  0.2-
120301 G84  0.2-  0.0     120324 C01  0.1-  0.2+    120327 379  0.0   0.7+
120301 G84  0.3-  0.0     120324 G48  0.3+  0.7+    120327 379  1.1-  0.5+
120301 H21  0.1-  0.2-    120324 G48  0.1-  1.0+    120327 379  1.0-  1.0+
120301 H21  0.0   0.1-    120324 G48  0.2-  0.3+    120327 379  0.4-  0.2-
120301 H21  0.1+  0.1+    120324 G48  0.0   0.7+    120327 379  0.1-  1.0+
120301 H21  0.1+  0.0     120324 G48  0.0   0.7+    120327 A24  0.2+  0.3-
120301 291  0.0   0.1+    120324 G48  0.1+  0.9+    120327 A24  0.2-  0.3+
120301 291  0.2-  0.1+    120324 G48  0.1-  0.4+    120327 A24  0.1-  0.1-
120301 291  0.1-  0.3+    120324 G48  0.2+  0.4+    120327 A24  0.2-  0.3+
120302 204  0.0   0.1-    120324 H45  0.0   0.3+    120327 A24  0.2-  0.3+
120302 204  0.1-  0.1-    120324 H45  0.4+  0.0     120327 A24  0.1-  0.2+
120302 204  0.1-  0.1-    120324 H45  0.3+  0.1+    120327 J84  0.2+  0.2-
120302 854  0.5-  0.2+    120324 H45  0.3+  0.1+    120327 J84  0.1+  0.1-
120302 854  0.1-  0.5-    120324 H45  0.1+  0.2+    120327 J84  0.2+  0.3-
120302 854  0.8-  0.4+    120324 H45  0.3+  0.2+    120327 A53  0.2+  0.3+
120303 595  0.5-  0.1-    120324 H45  0.1+  0.0     120327 A53  0.3-  0.2+
120303 595  0.4-  0.3-    120324 379  0.4-  0.2+    120327 A53  0.5-  0.5-
120303 595  0.4-  0.4-    120324 379  0.5-  0.0     120327 A53  0.4-  0.4+
120303 G51  0.1+  0.3-    120324 379  0.2-  0.1+    120327 A53  0.2-  0.2+
120303 G51  0.2-  0.4-    120324 379  0.2-  0.2-    120327 A53  0.6-  0.2+
120303 G51  0.1-  0.2-    120324 379  0.5-  0.2+    120328 H23  0.1+  0.7-
120303 G51  0.1+  0.3-    120324 379  0.7-  0.3+    120328 H23 (0.1-  1.9-)
120303 G51  0.1-  0.2-    120324 379  0.1-  0.2+    120328 H23  0.2-  0.1-
120303 G51  0.0   0.5-    120324 379  0.1+  0.3+    120328 850  0.3+  0.0
120303 G51  0.2+  0.5-    120325 H23  0.6-  0.0     120328 850  0.3+  0.1-
120303 G51  0.2+  0.4-    120325 H23  0.7-  0.1+    120328 H21  0.1-  0.2+
120303 682  0.1+  0.4-    120325 H23  0.5-  0.5+    120328 H21  0.1+  0.3+
120303 682  0.2+  0.2-    120325 H45  0.4+  0.5+    120328 H21  0.0   0.3+
120303 291  0.1-  0.1-    120325 H45  0.7+  0.7-    120328 850  0.0   0.2-
120303 291  0.1+  0.2-    120325 H45  0.7+  0.6-    120328 H21  0.0   0.2+
120303 291  0.1-  0.0     120325 H45  0.7+  0.8-    120328 H21  0.0   0.2+
120304 H21  0.1-  0.2-    120325 H45  0.5+  0.5-    120328 H21  0.0   0.4+
120304 H21  0.0   0.3-    120325 H45  0.5+  0.5-    120328 H45  0.1-  0.6+
120304 H21  0.3+  0.2-    120325 H45  0.5+  0.6-    120328 H45  0.2-  0.7+
120304 H45  0.3-  0.1-    120325 379  1.1-  0.7+    120328 H45  0.0   0.5+
120304 H45  0.2-  0.1+    120325 379  0.9-  0.8+    120328 H45  0.1+  0.5+
120304 H45  0.2+  0.1+    120325 379  0.6-  0.5+    120328 H45  0.0   0.4+
120304 H21  0.6-  0.1+    120325 379  1.1-  0.4+    120328 H45  0.0   0.7+
120304 H45  0.4+  0.0     120325 379  1.1-  0.1+    120328 H45  0.2+  0.7+
120304 H45  0.2-  0.2+    120325 A27  0.3+  0.2-    120328 379  1.0-  0.2+
120304 H45  0.4+  0.4+    120325 A27  0.4+  0.3-    120328 379  1.0-  0.1-
120304 H21  0.2-  0.1-    120325 A27  0.0   0.2-    120328 379  1.1-  0.4+
120304 H45  0.6-  0.5+    120325 A27  0.6+  0.3-    120328 379  0.3-  0.3+
120304 H21  0.0   0.2+    120325 A27  0.1+  0.4+    120328 379  0.7-  0.2-
120308 J41  0.7-  0.1+    120325 A13 (1.1-  2.7+)   120328 379  0.6-  0.4+
120308 J41  1.1-  0.4+    120325 A13 (0.9-  2.3+)   120328 379  0.4-  0.4+
120308 J41  0.5-  0.5+    120325 A13 (1.0-  2.5+)   120328 C01  0.1-  0.3+
120312 291  0.2-  0.1+    120325 A13 (1.0-  2.7+)   120328 C01  0.1+  0.6+
120312 291  0.0   0.1+    120326 379  0.6-  0.8+    120328 C01  0.1-  0.6+
120312 291  0.1+  0.3-    120326 379  0.2-  0.5+    120328 C01  0.0   0.4+
120313 H21  0.0   0.1-    120326 379  0.4-  0.6+    120328 C01  0.1-  0.6+
120313 H21  0.1+  0.1-    120326 379  0.8-  0.3+    120328 C01  0.0   0.1+
120313 H21  0.0   0.2-    120326 379  0.3-  0.5+    120328 C01  0.2+  0.2+
120313 H21  0.0   0.0     120326 379  0.4-  0.7+    120328 C01  0.3-  0.2+
120313 H45  0.1-  0.2-    120326 C01  0.0   0.0     120328 C01  0.0   0.0
120313 H45  0.3-  0.5-    120326 C01  0.0   0.1-    120328 C01  0.2+  0.1+
120313 H45  0.1+  0.0     120326 C01  0.1+  0.1-    120328 C01  0.1+  0.2+
120313 H45  0.3-  0.0     120326 089  0.0   0.0     120328 C01  0.2+  0.1+
mailing list